Time,TemperatureF,DewpointF,PressureIn,WindDirection,WindDirectionDegrees,WindSpeedMPH,WindSpeedGustMPH,Humidity,HourlyPrecipIn,Conditions,Clouds,dailyrainin,SolarRadiationWatts/m^2,SoftwareType,DateUTC
2013-03-29 00:03:00,50.0,39.0,-100.00,SSW,205,3.0,3.0,66,0.00,,,-99.99,0.000000,,2013-03-29 05:03:00,
2013-03-29 00:33:00,50.0,42.0,-100.00,SSW,211,3.0,4.0,75,0.00,,,-99.99,0.000000,,2013-03-29 05:33:00,
2013-03-29 00:43:00,50.0,42.0,-100.00,SSW,211,3.0,4.0,75,0.00,,,-99.99,0.000000,,2013-03-29 05:43:00,
2013-03-29 00:52:00,50.0,42.0,-100.00,SSW,211,3.0,4.0,75,0.00,,,-99.99,0.000000,,2013-03-29 05:52:00,
2013-03-29 01:02:00,50.0,42.0,-100.00,SSW,211,3.0,4.0,75,0.00,,,-99.99,0.000000,,2013-03-29 06:02:00,
2013-03-29 01:32:00,48.0,43.0,-100.00,SSW,203,3.0,5.0,83,0.00,,,-99.99,0.000000,,2013-03-29 06:32:00,
2013-03-29 01:42:00,48.0,43.0,-100.00,SSW,203,3.0,5.0,83,0.00,,,-99.99,0.000000,,2013-03-29 06:42:00,
2013-03-29 01:52:00,48.0,43.0,-100.00,SSW,203,3.0,5.0,83,0.00,,,-99.99,0.000000,,2013-03-29 06:52:00,
2013-03-29 02:03:00,48.0,43.0,-100.00,SSW,203,3.0,5.0,83,0.00,,,-99.99,0.000000,,2013-03-29 07:03:00,
2013-03-29 02:32:00,47.0,44.0,-100.00,SSW,205,2.0,5.0,89,0.00,,,-99.99,0.000000,,2013-03-29 07:32:00,
2013-03-29 02:42:00,47.0,44.0,-100.00,SSW,205,2.0,5.0,89,0.00,,,-99.99,0.000000,,2013-03-29 07:42:00,
2013-03-29 02:52:00,47.0,44.0,-100.00,SSW,205,2.0,5.0,89,0.00,,,-99.99,0.000000,,2013-03-29 07:52:00,
2013-03-29 03:02:00,47.0,44.0,-100.00,SSW,205,2.0,5.0,89,0.00,,,-99.99,0.000000,,2013-03-29 08:02:00,
2013-03-29 03:32:00,46.0,44.0,-100.00,SW,225,2.0,4.0,92,0.00,,,-99.99,0.000000,,2013-03-29 08:32:00,
2013-03-29 03:42:00,46.0,44.0,-100.00,SW,225,2.0,4.0,92,0.00,,,-99.99,0.000000,,2013-03-29 08:42:00,
2013-03-29 03:53:00,46.0,44.0,-100.00,SW,225,2.0,4.0,92,0.00,,,-99.99,0.000000,,2013-03-29 08:53:00,
2013-03-29 04:02:00,46.0,44.0,-100.00,SW,225,2.0,4.0,92,0.00,,,-99.99,0.000000,,2013-03-29 09:02:00,
2013-03-29 04:33:00,46.0,45.0,-100.00,WSW,240,0.0,4.0,95,0.00,,,-99.99,0.000000,,2013-03-29 09:33:00,
2013-03-29 04:43:00,46.0,45.0,-100.00,WSW,240,0.0,4.0,95,0.00,,,-99.99,0.000000,,2013-03-29 09:43:00,
2013-03-29 04:52:00,46.0,45.0,-100.00,WSW,240,0.0,4.0,95,0.00,,,-99.99,0.000000,,2013-03-29 09:52:00,
2013-03-29 05:03:00,46.0,45.0,-100.00,WSW,240,0.0,4.0,95,0.00,,,-99.99,0.000000,,2013-03-29 10:03:00,
2013-03-29 05:33:00,42.0,40.0,-100.00,SSW,193,0.0,0.0,94,0.00,,,-99.99,0.000000,,2013-03-29 10:33:00,
2013-03-29 05:42:00,42.0,40.0,-100.00,SSW,193,0.0,0.0,94,0.00,,,-99.99,0.000000,,2013-03-29 10:42:00,
2013-03-29 05:53:00,42.0,40.0,-100.00,SSW,193,0.0,0.0,94,0.00,,,-99.99,0.000000,,2013-03-29 10:53:00,
2013-03-29 06:03:00,42.0,40.0,-100.00,SSW,193,0.0,0.0,94,0.00,,,-99.99,0.000000,,2013-03-29 11:03:00,
2013-03-29 06:33:00,43.0,43.0,-100.00,WSW,251,0.0,0.0,99,0.00,,,-99.99,0.000000,,2013-03-29 11:33:00,
2013-03-29 06:43:00,43.0,43.0,-100.00,WSW,251,0.0,0.0,99,0.00,,,-99.99,0.000000,,2013-03-29 11:43:00,
2013-03-29 06:53:00,43.0,43.0,-100.00,WSW,251,0.0,0.0,99,0.00,,,-99.99,0.000000,,2013-03-29 11:53:00,
2013-03-29 07:02:00,43.0,43.0,-100.00,WSW,251,0.0,0.0,99,0.00,,,-99.99,0.000000,,2013-03-29 12:02:00,
2013-03-29 07:33:00,41.0,40.0,-100.00,WSW,238,0.0,0.0,97,0.00,,,-99.99,3.000000,,2013-03-29 12:33:00,
2013-03-29 07:43:00,41.0,40.0,-100.00,WSW,238,0.0,0.0,97,0.00,,,-99.99,3.000000,,2013-03-29 12:43:00,
2013-03-29 07:53:00,41.0,40.0,-100.00,WSW,238,0.0,0.0,97,0.00,,,-99.99,3.000000,,2013-03-29 12:53:00,
2013-03-29 08:03:00,41.0,40.0,-100.00,WSW,238,0.0,0.0,97,0.00,,,-99.99,3.000000,,2013-03-29 13:03:00,
2013-03-29 08:33:00,49.0,48.0,-100.00,East,100,0.0,2.0,95,0.00,,,-99.99,87.000000,,2013-03-29 13:33:00,
2013-03-29 08:43:00,49.0,48.0,-100.00,East,100,0.0,2.0,95,0.00,,,-99.99,87.000000,,2013-03-29 13:43:00,
2013-03-29 08:53:00,49.0,48.0,-100.00,East,100,0.0,2.0,95,0.00,,,-99.99,87.000000,,2013-03-29 13:53:00,
2013-03-29 09:03:00,49.0,48.0,-100.00,East,100,0.0,2.0,95,0.00,,,-99.99,87.000000,,2013-03-29 14:03:00,
2013-03-29 09:33:00,59.0,51.0,-100.00,SW,232,2.0,4.0,74,0.00,,,-99.99,256.000000,,2013-03-29 14:33:00,
2013-03-29 09:42:00,59.0,51.0,-100.00,SW,232,2.0,4.0,74,0.00,,,-99.99,256.000000,,2013-03-29 14:42:00,
2013-03-29 09:53:00,59.0,51.0,-100.00,SW,232,2.0,4.0,74,0.00,,,-99.99,256.000000,,2013-03-29 14:53:00,
2013-03-29 10:02:00,59.0,51.0,-100.00,SW,232,2.0,4.0,74,0.00,,,-99.99,256.000000,,2013-03-29 15:02:00,
2013-03-29 10:33:00,67.0,46.0,-100.00,SSW,195,2.0,6.0,46,0.00,,,-99.99,428.000000,,2013-03-29 15:33:00,
2013-03-29 10:43:00,67.0,46.0,-100.00,SSW,195,2.0,6.0,46,0.00,,,-99.99,428.000000,,2013-03-29 15:43:00,
2013-03-29 10:53:00,67.0,46.0,-100.00,SSW,195,2.0,6.0,46,0.00,,,-99.99,428.000000,,2013-03-29 15:53:00,
2013-03-29 11:03:00,67.0,46.0,-100.00,SSW,195,2.0,6.0,46,0.00,,,-99.99,428.000000,,2013-03-29 16:03:00,
2013-03-29 11:33:00,71.0,42.0,-100.00,SSW,204,3.0,11.0,35,0.00,,,-99.99,586.000000,,2013-03-29 16:33:00,
2013-03-29 11:43:00,71.0,42.0,-100.00,SSW,204,3.0,11.0,35,0.00,,,-99.99,586.000000,,2013-03-29 16:43:00,
2013-03-29 11:53:00,71.0,42.0,-100.00,SSW,204,3.0,11.0,35,0.00,,,-99.99,586.000000,,2013-03-29 16:53:00,
2013-03-29 12:03:00,71.0,42.0,-100.00,SSW,204,3.0,11.0,35,0.00,,,-99.99,586.000000,,2013-03-29 17:03:00,
2013-03-29 12:33:00,73.0,37.0,-100.00,SSW,212,5.0,13.0,27,0.00,,,-99.99,701.000000,,2013-03-29 17:33:00,
2013-03-29 12:43:00,73.0,37.0,-100.00,SSW,212,5.0,13.0,27,0.00,,,-99.99,701.000000,,2013-03-29 17:43:00,
2013-03-29 12:53:00,73.0,37.0,-100.00,SSW,212,5.0,13.0,27,0.00,,,-99.99,701.000000,,2013-03-29 17:53:00,
2013-03-29 13:02:00,73.0,37.0,-100.00,SSW,212,5.0,13.0,27,0.00,,,-99.99,701.000000,,2013-03-29 18:02:00,
2013-03-29 13:33:00,74.0,38.0,-100.00,SSW,200,5.0,13.0,27,0.00,,,0.00,756.000000,,2013-03-29 18:33:00,
2013-03-29 13:43:00,74.0,38.0,-100.00,SSW,200,5.0,13.0,27,0.00,,,0.00,756.000000,,2013-03-29 18:43:00,
2013-03-29 13:52:00,74.0,38.0,-100.00,SSW,200,5.0,13.0,27,0.00,,,0.00,756.000000,,2013-03-29 18:52:00,
2013-03-29 14:02:00,74.0,38.0,-100.00,SSW,200,5.0,13.0,27,0.00,,,0.00,756.000000,,2013-03-29 19:02:00,
2013-03-29 14:33:00,75.0,41.0,-100.00,SW,233,5.0,13.0,29,0.00,,,0.00,760.000000,,2013-03-29 19:33:00,
2013-03-29 14:43:00,75.0,41.0,-100.00,SW,233,5.0,13.0,29,0.00,,,0.00,760.000000,,2013-03-29 19:43:00,
2013-03-29 14:53:00,75.0,41.0,-100.00,SW,233,5.0,13.0,29,0.00,,,0.00,760.000000,,2013-03-29 19:53:00,
2013-03-29 15:02:00,75.0,41.0,-100.00,SW,233,5.0,13.0,29,0.00,,,0.00,760.000000,,2013-03-29 20:02:00,
2013-03-29 15:33:00,76.0,41.0,-100.00,WSW,239,4.0,10.0,28,0.00,,,0.00,699.000000,,2013-03-29 20:33:00,
2013-03-29 15:42:00,76.0,41.0,-100.00,WSW,239,4.0,10.0,28,0.00,,,0.00,699.000000,,2013-03-29 20:42:00,
2013-03-29 15:52:00,76.0,41.0,-100.00,WSW,239,4.0,10.0,28,0.00,,,0.00,699.000000,,2013-03-29 20:52:00,
2013-03-29 16:02:00,76.0,41.0,-100.00,WSW,239,4.0,10.0,28,0.00,,,0.00,699.000000,,2013-03-29 21:02:00,
2013-03-29 16:33:00,77.0,42.0,-100.00,SSW,207,4.0,13.0,29,0.00,,,0.00,587.000000,,2013-03-29 21:33:00,
2013-03-29 16:43:00,77.0,42.0,-100.00,SSW,207,4.0,13.0,29,0.00,,,0.00,587.000000,,2013-03-29 21:43:00,
2013-03-29 16:53:00,77.0,42.0,-100.00,SSW,207,4.0,13.0,29,0.00,,,0.00,587.000000,,2013-03-29 21:53:00,
2013-03-29 17:03:00,77.0,42.0,-100.00,SSW,207,4.0,13.0,29,0.00,,,0.00,587.000000,,2013-03-29 22:03:00,
2013-03-29 17:34:00,76.0,42.0,-100.00,SSW,196,3.0,10.0,30,0.00,,,0.00,425.000000,,2013-03-29 22:34:00,
2013-03-29 17:43:00,76.0,42.0,-100.00,SSW,196,3.0,10.0,30,0.00,,,0.00,425.000000,,2013-03-29 22:43:00,
2013-03-29 17:54:00,76.0,42.0,-100.00,SSW,196,3.0,10.0,30,0.00,,,0.00,425.000000,,2013-03-29 22:54:00,
2013-03-29 18:03:00,76.0,42.0,-100.00,SSW,196,3.0,10.0,30,0.00,,,0.00,425.000000,,2013-03-29 23:03:00,
2013-03-29 18:32:00,71.0,44.0,-100.00,SSW,209,2.0,12.0,38,0.00,,,0.00,183.000000,,2013-03-29 23:32:00,
2013-03-29 18:43:00,71.0,44.0,-100.00,SSW,209,2.0,12.0,38,0.00,,,0.00,183.000000,,2013-03-29 23:43:00,
2013-03-29 18:52:00,71.0,44.0,-100.00,SSW,209,2.0,12.0,38,0.00,,,0.00,183.000000,,2013-03-29 23:52:00,
2013-03-29 19:03:00,71.0,44.0,-100.00,SSW,209,2.0,12.0,38,0.00,,,0.00,183.000000,,2013-03-30 00:03:00,
2013-03-29 19:33:00,67.0,47.0,-100.00,SSW,205,2.0,5.0,48,0.00,,,0.00,39.000000,,2013-03-30 00:33:00,
2013-03-29 19:43:00,67.0,47.0,-100.00,SSW,205,2.0,5.0,48,0.00,,,0.00,39.000000,,2013-03-30 00:43:00,
2013-03-29 19:53:00,67.0,47.0,-100.00,SSW,205,2.0,5.0,48,0.00,,,0.00,39.000000,,2013-03-30 00:53:00,
2013-03-29 20:02:00,67.0,47.0,-100.00,SSW,205,2.0,5.0,48,0.00,,,0.00,39.000000,,2013-03-30 01:02:00,
2013-03-29 20:33:00,62.0,49.0,-100.00,SSW,205,2.0,3.0,62,0.00,,,0.00,1.000000,,2013-03-30 01:33:00,
2013-03-29 20:43:00,62.0,49.0,-100.00,SSW,205,2.0,3.0,62,0.00,,,0.00,1.000000,,2013-03-30 01:43:00,
2013-03-29 20:53:00,62.0,49.0,-100.00,SSW,205,2.0,3.0,62,0.00,,,0.00,1.000000,,2013-03-30 01:53:00,
2013-03-29 21:02:00,62.0,49.0,-100.00,SSW,205,2.0,3.0,62,0.00,,,0.00,1.000000,,2013-03-30 02:02:00,
2013-03-29 21:33:00,61.0,49.0,-100.00,SSW,203,3.0,8.0,65,0.00,,,0.00,0.000000,,2013-03-30 02:33:00,
2013-03-29 21:43:00,61.0,49.0,-100.00,SSW,203,3.0,8.0,65,0.00,,,0.00,0.000000,,2013-03-30 02:43:00,
2013-03-29 21:53:00,61.0,49.0,-100.00,SSW,203,3.0,8.0,65,0.00,,,0.00,0.000000,,2013-03-30 02:53:00,
2013-03-29 22:02:00,61.0,49.0,-100.00,SSW,203,3.0,8.0,65,0.00,,,0.00,0.000000,,2013-03-30 03:02:00,
2013-03-29 22:33:00,60.0,52.0,-100.00,SSW,205,3.0,7.0,75,0.00,,,0.00,0.000000,,2013-03-30 03:33:00,
2013-03-29 22:43:00,60.0,52.0,-100.00,SSW,205,3.0,7.0,75,0.00,,,0.00,0.000000,,2013-03-30 03:43:00,
2013-03-29 22:53:00,60.0,52.0,-100.00,SSW,205,3.0,7.0,75,0.00,,,0.00,0.000000,,2013-03-30 03:53:00,
2013-03-29 23:02:00,60.0,52.0,-100.00,SSW,205,3.0,7.0,75,0.00,,,0.00,0.000000,,2013-03-30 04:02:00,
2013-03-29 23:33:00,58.0,53.0,-100.00,SSW,206,3.0,5.0,84,0.00,,,0.00,0.000000,,2013-03-30 04:33:00,
2013-03-29 23:43:00,58.0,53.0,-100.00,SSW,206,3.0,5.0,84,0.00,,,0.00,0.000000,,2013-03-30 04:43:00,
2013-03-29 23:53:00,58.0,53.0,-100.00,SSW,206,3.0,5.0,84,0.00,,,0.00,0.000000,,2013-03-30 04:53:00,